User: anonymous   Login
Location: Sandbanks Provincial Park
(47.6073°N, 57.6428°W)
Time: 03:49:49
(UTC-03:-30)
Language:

Cosmos 2034 Rocket - Orbit

View from above orbital plane
View from above orbital plane
View from above satellite
View from above satellite

Ground track
Ground track

The orbit data is extracted from the following two-line orbital elements,

1 20150U 89059B   14352.18561443  .00000089  00000-0  76283-4 0   905
2 20150 082.9397 050.6610 0027569 310.2257 102.0247 13.75593491275002
Epoch (UTC): 18 December 2014 04:27:17
Eccentricity: 0.0027569
inclination: 82.9397°
perigee height: 959 km
apogee height: 1000 km
right ascension of ascending node: 50.6610°
argument of perigee: 310.2257°
revolutions per day: 13.75593491
mean anomaly at epoch: 102.0247°
orbit number at epoch: 27500

The dashed part of the orbit path shows where the satellite is in the earth's shadow,  

DLR